CW6575 Weather Reports


time (UTC)temp
C
wind
direction
speed
KPH
gust
KPH
rain 1hr
cm
rain 24hr
cm
rain mn
cm
humidity
%
barometer
mb
20260510031532 8 164 3.2 6.4 0.00 0.00 0.00 88 1010.7
20260510030026 8 164 1.6 8.0 0.00 0.00 0.00 87 1010.7
20260510024525 9 165 1.6 4.8 0.00 0.00 0.00 87 1010.7
20260510023024 8 165 1.6 4.8 0.00 0.00 0.00 86 1010.6
20260510021532 9 165 3.2 6.4 0.00 0.00 0.00 86 1010.3
20260510020020 10 165 1.6 6.4 0.00 0.00 0.00 84 1010.3
20260510014519 10 165 3.2 6.4 0.00 0.00 0.00 83 1010.1
20260510013018 10 165 1.6 4.8 0.00 0.00 0.00 81 1009.9
20260510011516 11 165 0.0 1.6 0.00 0.00 0.00 78 1009.5
20260510010015 12 165 0.0 4.8 0.00 0.00 0.00 76 1009.1
20260510004517 13 159 0.0 3.2 0.00 0.00 0.00 72 1008.8
20260510003015 15 319 0.0 3.2 0.00 0.00 0.00 63 1008.6
20260510001514 16 326 0.0 3.2 0.00 0.00 0.00 58 1008.5
20260510000018 16 321 1.6 6.4 0.00 0.00 0.00 57 1008.5
20260509234514 17 303 0.0 6.4 0.00 0.00 0.00 56 1008.3
20260509233013 17 302 1.6 8.0 0.00 0.00 0.00 54 1008.2
20260509231513 17 302 3.2 8.0 0.00 0.00 0.00 53 1008.2
20260509230011 18 304 3.2 8.0 0.00 0.00 0.00 52 1008.4
20260509224511 18 315 1.6 6.4 0.00 0.00 0.00 50 1008.4
20260509223011 18 205 1.6 6.4 0.00 0.00 0.00 50 1008.6
20260509221511 17 5 1.6 8.0 0.00 0.00 0.00 53 1008.7
20260509220011 17 315 3.2 8.0 0.00 0.00 0.00 53 1008.8
20260509214510 17 304 3.2 9.7 0.00 0.00 0.00 53 1008.6
20260509213009 17 275 3.2 14.5 0.00 0.00 0.00 51 1008.5
20260509211513 18 330 1.6 6.4 0.00 0.00 0.00 50 1008.2
20260509210011 19 322 3.2 11.3 0.00 0.00 0.00 48 1008.0
20260509204507 18 295 3.2 8.0 0.00 0.00 0.00 50 1008.0
20260509203006 18 303 3.2 11.3 0.00 0.00 0.00 49 1007.8
20260509201506 18 347 3.2 12.9 0.00 0.00 0.00 49 1007.9
20260509200005 18 355 3.2 14.5 0.00 0.00 0.00 47 1007.7
20260509194505 18 277 1.6 12.9 0.00 0.00 0.00 46 1007.8
20260509193010 19 326 3.2 12.9 0.00 0.00 0.00 42 1007.8
20260509191604 18 332 3.2 8.0 0.00 0.00 0.00 50 1007.8
20260509190109 18 338 3.2 9.7 0.00 0.00 0.00 50 1007.8
20260509184558 18 267 0.0 4.8 0.00 0.00 0.00 49 1007.8
20260509183055 18 123 1.6 12.9 0.00 0.00 0.00 51 1007.9
20260509181559 17 142 4.8 17.7 0.00 0.00 0.00 52 1007.8
20260509180058 17 103 11.3 19.3 0.00 0.00 0.00 52 1007.9
20260509174550 17 300 3.2 17.7 0.00 0.00 0.00 54 1008.1
20260509173049 17 161 8.0 16.1 0.00 0.00 0.00 55 1008.1
20260509171547 17 126 6.4 25.7 0.00 0.00 0.00 56 1008.4
20260509170042 16 184 4.8 14.5 0.00 0.00 0.00 58 1008.6
20260509164548 16 144 4.8 11.3 0.00 0.00 0.00 58 1008.7
20260509163038 15 164 0.0 4.8 0.00 0.00 0.00 57 1008.8
20260509161538 15 267 0.0 1.6 0.00 0.00 0.00 56 1008.8
20260509160035 15 171 0.0 8.0 0.00 0.00 0.00 57 1008.8
20260509154533 15 338 0.0 3.2 0.00 0.00 0.00 59 1008.9
20260509153032 15 338 1.6 6.4 0.00 0.00 0.00 57 1009.3
20260509151536 15 341 0.0 6.4 0.00 0.00 0.00 58 1009.4
20260509150036 15 341 1.6 4.8 0.00 0.00 0.00 57 1009.5
20260509144534 15 315 1.6 4.8 0.00 0.00 0.00 57 1009.2
20260509143031 15 280 1.6 4.8 0.00 0.00 0.00 55 1009.0
20260509141525 13 331 1.6 4.8 0.00 0.00 0.00 60 1009.0
20260509140022 13 331 1.6 6.4 0.00 0.00 0.00 61 1008.8
20260509134519 13 319 1.6 4.8 0.00 0.00 0.00 65 1008.9
20260509133017 12 336 1.6 4.8 0.00 0.00 0.00 66 1009.3
20260509131514 12 314 1.6 3.2 0.00 0.00 0.00 67 1009.4
20260509130015 11 210 0.0 4.8 0.00 0.00 0.00 69 1009.3
20260509124508 11 210 0.0 1.6 0.00 0.00 0.00 73 1009.4
20260509123101 10 210 0.0 3.2 0.00 0.00 0.00 73 1009.4
20260509121558 -17 0.0 0.0 0.00 0.00 0.00 1009.6
20260509120055 -17 0.0 0.0 0.00 0.00 0.00 1009.7
20260509114551 -17 0.0 0.0 0.00 0.00 0.00 1009.9
20260509113050 -17 0.0 0.0 0.00 0.00 0.00 1009.9
20260509111540 -17 0.0 0.0 0.00 0.00 0.00 1009.8
20260509110037 -17 0.0 0.0 0.00 0.00 0.00 1009.9
20260509104532 -17 0.0 0.0 0.00 0.00 0.00 1009.8
20260509103027 -17 0.0 0.0 0.00 0.00 0.00 1009.8
20260509101534 -17 0.0 0.0 0.00 0.00 0.00 1009.8
20260509100023 -17 0.0 0.0 0.00 0.00 0.00 1009.6
20260509094519 -17 0.0 0.0 0.00 0.00 0.00 1009.6
20260509093011 -17 0.0 0.0 0.00 0.00 0.00 1009.7
20260509091506 -17 0.0 0.0 0.00 0.00 0.00 1009.8
20260509090002 -17 0.0 0.0 0.00 0.00 0.00 1010.0
20260509084600 -17 0.0 0.0 0.00 0.00 0.00 1010.1
20260509083053 -17 0.0 0.0 0.00 0.00 0.00 1010.2
20260509081550 -17 0.0 0.0 0.00 0.00 0.00 1010.3
20260509080044 -17 0.0 0.0 0.00 0.00 0.00 1010.4
20260509074551 -17 0.0 0.0 0.00 0.00 0.00 1010.3
20260509073036 -17 0.0 0.0 0.00 0.00 0.00 1010.4
20260509071530 -17 0.0 0.0 0.00 0.00 0.00 1010.4
20260509070027 -17 0.0 0.0 0.00 0.00 0.00 1010.7
20260509064522 -17 0.0 0.0 0.00 0.00 0.00 1010.6
20260509063018 -17 0.0 0.0 0.00 0.00 0.00 1010.7
20260509061515 10 155 1.6 6.4 0.00 0.00 0.00 74 1010.9
20260509060012 10 155 1.6 8.0 0.00 0.00 0.00 73 1011.1
20260509054509 10 155 3.2 8.0 0.00 0.00 0.00 69 1011.2
20260509053008 10 155 1.6 8.0 0.00 0.00 0.00 65 1011.2
20260509051506 10 167 3.2 6.4 0.00 0.00 0.00 67 1011.5
20260509050004 10 165 1.6 6.4 0.00 0.00 0.00 68 1011.5
20260509044504 10 169 4.8 6.4 0.00 0.00 0.00 69 1011.6
20260509043001 10 171 4.8 6.4 0.00 0.00 0.00 68 1011.5
20260509041600 10 161 4.8 9.7 0.00 0.00 0.00 67 1011.7
20260509040058 11 163 4.8 8.0 0.00 0.00 0.00 69 1011.8
20260509034558 10 152 4.8 9.7 0.00 0.00 0.00 69 1011.9
20260509033059 10 170 0.0 0.0 0.00 0.00 0.00 73 1011.9